| time (UTC) | temp C | wind direction | speed KPH | gust KPH | rain 1hr cm | rain 24hr cm | rain mn cm | humidity % | barometer mb |
| 20260505183835 | 20 | 255 | 22.5 | 25.7 | 0.00 | 0.00 | 0.00 | 61 | 1005.7 |
| 20260505183332 | 21 | 226 | 24.1 | 29.0 | 0.00 | 0.00 | 0.00 | 61 | 1005.9 |
| 20260505182829 | 20 | 232 | 19.3 | 22.5 | 0.00 | 0.00 | 0.00 | 61 | 1005.8 |
| 20260505182326 | 20 | 236 | 19.3 | 24.1 | 0.00 | 0.00 | 0.00 | 61 | 1005.9 |
| 20260505181823 | 21 | 215 | 27.4 | 32.2 | 0.00 | 0.00 | 0.00 | 60 | 1005.9 |
| 20260505181320 | 21 | 239 | 16.1 | 17.7 | 0.00 | 0.00 | 0.00 | 60 | 1005.9 |
| 20260505180816 | 21 | 225 | 19.3 | 24.1 | 0.00 | 0.00 | 0.00 | 61 | 1006.0 |
| 20260505180313 | 21 | 197 | 25.7 | 32.2 | 0.00 | 0.00 | 0.00 | 59 | 1005.9 |
| 20260505175809 | 21 | 210 | 37.0 | 38.6 | 0.00 | 0.00 | 0.00 | 58 | 1006.1 |
| 20260505175306 | 21 | 262 | 11.3 | 12.9 | 0.00 | 0.00 | 0.00 | 60 | 1006.2 |
| 20260505174802 | 21 | 264 | 17.7 | 32.2 | 0.00 | 0.00 | 0.00 | 60 | 1006.5 |
| 20260505174300 | 21 | 246 | 22.5 | 27.4 | 0.00 | 0.00 | 0.00 | 60 | 1006.4 |
| 20260505173755 | 20 | 226 | 22.5 | 27.4 | 0.00 | 0.00 | 0.00 | 61 | 1006.6 |
| 20260505173252 | 20 | 223 | 19.3 | 22.5 | 0.00 | 0.00 | 0.00 | 63 | 1006.7 |
| 20260505172749 | 20 | 253 | 20.9 | 24.1 | 0.00 | 0.00 | 0.00 | 62 | 1006.6 |
| 20260505172246 | 20 | 254 | 11.3 | 17.7 | 0.00 | 0.00 | 0.00 | 66 | 1006.9 |
| 20260505171747 | 19 | 225 | 16.1 | 17.7 | 0.00 | 0.00 | 0.00 | 63 | 1006.9 |
| 20260505171243 | 19 | 248 | 22.5 | 27.4 | 0.00 | 0.00 | 0.00 | 65 | 1007.0 |
| 20260505170740 | 19 | 220 | 27.4 | 32.2 | 0.00 | 0.00 | 0.00 | 64 | 1007.2 |
| 20260505170238 | 19 | 252 | 16.1 | 17.7 | 0.00 | 0.00 | 0.00 | 65 | 1007.2 |
| 20260505165732 | 19 | 267 | 19.3 | 25.7 | 0.00 | 0.00 | 0.00 | 65 | 1007.1 |
| 20260505165229 | 19 | 229 | 22.5 | 27.4 | 0.00 | 0.00 | 0.00 | 65 | 1007.2 |
| 20260505164724 | 18 | 242 | 16.1 | 20.9 | 0.00 | 0.00 | 0.00 | 67 | 1007.1 |
| 20260505164222 | 18 | 228 | 17.7 | 24.1 | 0.00 | 0.00 | 0.00 | 67 | 1007.2 |
| 20260505163720 | 18 | 272 | 14.5 | 17.7 | 0.00 | 0.00 | 0.00 | 65 | 1007.2 |
| 20260505163218 | 18 | 227 | 16.1 | 20.9 | 0.00 | 0.00 | 0.00 | 67 | 1007.5 |
| 20260505162715 | 18 | 246 | 17.7 | 20.9 | 0.00 | 0.00 | 0.00 | 66 | 1007.5 |
| 20260505162212 | 19 | 229 | 14.5 | 17.7 | 0.00 | 0.00 | 0.00 | 65 | 1007.5 |
| 20260505161709 | 20 | 249 | 24.1 | 27.4 | 0.00 | 0.00 | 0.00 | 65 | 1007.8 |
| 20260505161207 | 20 | 257 | 19.3 | 24.1 | 0.00 | 0.00 | 0.00 | 65 | 1007.7 |
| 20260505160704 | 20 | 232 | 22.5 | 29.0 | 0.00 | 0.00 | 0.00 | 63 | 1007.9 |
| 20260505160201 | 20 | 213 | 12.9 | 14.5 | 0.00 | 0.00 | 0.00 | 64 | 1008.1 |
| 20260505153140 | 19 | 268 | 12.9 | 14.5 | 0.00 | 0.00 | 0.00 | 62 | 1008.2 |
| 20260505152637 | 19 | 221 | 22.5 | 24.1 | 0.00 | 0.00 | 0.00 | 62 | 1007.8 |
| 20260505152133 | 19 | 223 | 14.5 | 17.7 | 0.00 | 0.00 | 0.00 | 62 | 1008.2 |
| 20260505151628 | 19 | 259 | 14.5 | 20.9 | 0.00 | 0.00 | 0.00 | 61 | 1008.0 |
| 20260505151126 | 18 | 240 | 12.9 | 16.1 | 0.00 | 0.00 | 0.00 | 64 | 1008.1 |
| 20260505150622 | 18 | 209 | 22.5 | 27.4 | 0.00 | 0.00 | 0.00 | 63 | 1008.0 |
| 20260505150119 | 19 | 238 | 17.7 | 22.5 | 0.00 | 0.00 | 0.00 | 63 | 1008.2 |
| 20260505140548 | 18 | 218 | 25.7 | 27.4 | 0.00 | 0.00 | 0.00 | 63 | 1008.4 |
| 20260505125001 | 16 | 246 | 8.0 | 9.7 | 0.00 | 0.00 | 0.00 | 68 | 1009.0 |
| 20260505124458 | 15 | 220 | 12.9 | 14.5 | 0.00 | 0.00 | 0.00 | 71 | 1009.1 |
| 20260505123954 | 15 | 213 | 11.3 | 11.3 | 0.00 | 0.00 | 0.00 | 71 | 1009.0 |
| 20260505123450 | 15 | 218 | 11.3 | 11.3 | 0.00 | 0.00 | 0.00 | 71 | 1009.0 |
| 20260505122946 | 15 | 233 | 14.5 | 20.9 | 0.00 | 0.00 | 0.00 | 70 | 1009.5 |
| 20260505122444 | 15 | 216 | 12.9 | 14.5 | 0.00 | 0.00 | 0.00 | 72 | 1009.5 |
| 20260505121941 | 15 | 246 | 8.0 | 9.7 | 0.00 | 0.00 | 0.00 | 73 | 1009.6 |
| 20260505121438 | 14 | 284 | 9.7 | 12.9 | 0.00 | 0.00 | 0.00 | 73 | 1009.4 |
| 20260505120933 | 13 | 225 | 8.0 | 9.7 | 0.00 | 0.00 | 0.00 | 74 | 1009.5 |
| 20260505120430 | 13 | 237 | 11.3 | 12.9 | 0.00 | 0.00 | 0.00 | 77 | 1009.5 |
| 20260505115929 | 13 | 220 | 6.4 | 9.7 | 0.00 | 0.00 | 0.00 | 76 | 1009.6 |
| 20260505115426 | 13 | 238 | 11.3 | 12.9 | 0.00 | 0.00 | 0.00 | 76 | 1009.4 |
| 20260505114924 | 13 | 258 | 4.8 | 4.8 | 0.00 | 0.00 | 0.00 | 78 | 1009.4 |
| 20260505114420 | 12 | 214 | 6.4 | 9.7 | 0.00 | 0.00 | 0.00 | 77 | 1009.5 |
| 20260505113916 | 12 | 261 | 8.0 | 9.7 | 0.00 | 0.00 | 0.00 | 77 | 1009.6 |
| 20260505113413 | 12 | 265 | 6.4 | 9.7 | 0.00 | 0.00 | 0.00 | 78 | 1009.6 |
| 20260505112909 | 12 | 249 | 4.8 | 4.8 | 0.00 | 0.00 | 0.00 | 79 | 1009.5 |
| 20260505112407 | 11 | 249 | 8.0 | 8.0 | 0.00 | 0.00 | 0.00 | 81 | 1009.6 |
| 20260505111902 | 11 | 244 | 8.0 | 9.7 | 0.00 | 0.00 | 0.00 | 82 | 1009.7 |
| 20260505111357 | 11 | 219 | 8.0 | 8.0 | 0.00 | 0.00 | 0.00 | 84 | 1009.6 |
| 20260505110854 | 10 | 206 | 6.4 | 8.0 | 0.00 | 0.00 | 0.00 | 85 | 1009.4 |
| 20260505110351 | 10 | 214 | 8.0 | 9.7 | 0.00 | 0.00 | 0.00 | 85 | 1009.7 |
| 20260505101821 | 10 | 263 | 12.9 | 16.1 | 0.00 | 0.00 | 0.00 | 83 | 1009.4 |
| 20260505101316 | 10 | 225 | 9.7 | 11.3 | 0.00 | 0.00 | 0.00 | 84 | 1009.2 |
| 20260505100813 | 10 | 290 | 6.4 | 8.0 | 0.00 | 0.00 | 0.00 | 84 | 1009.2 |
| 20260505100309 | 9 | 273 | 8.0 | 9.7 | 0.00 | 0.00 | 0.00 | 84 | 1009.3 |
| 20260505095805 | 9 | 271 | 6.4 | 9.7 | 0.00 | 0.00 | 0.00 | 85 | 1009.0 |
| 20260505095304 | 9 | 250 | 6.4 | 11.3 | 0.00 | 0.00 | 0.00 | 85 | 1009.5 |
| 20260505094758 | 9 | 251 | 8.0 | 11.3 | 0.00 | 0.00 | 0.00 | 85 | 1009.2 |
| 20260505094256 | 9 | 220 | 8.0 | 9.7 | 0.00 | 0.00 | 0.00 | 85 | 1009.1 |
| 20260505093751 | 9 | 264 | 4.8 | 8.0 | 0.00 | 0.00 | 0.00 | 85 | 1009.1 |
| 20260505093249 | 9 | 264 | 8.0 | 9.7 | 0.00 | 0.00 | 0.00 | 84 | 1009.2 |
| 20260505092745 | 9 | 285 | 9.7 | 12.9 | 0.00 | 0.00 | 0.00 | 84 | 1009.4 |
| 20260505092244 | 9 | 287 | 9.7 | 11.3 | 0.00 | 0.00 | 0.00 | 84 | 1009.0 |
| 20260505091741 | 9 | 263 | 9.7 | 11.3 | 0.00 | 0.00 | 0.00 | 84 | 1009.0 |
| 20260505091239 | 9 | 274 | 6.4 | 8.0 | 0.00 | 0.00 | 0.00 | 83 | 1009.1 |
| 20260505090736 | 9 | 286 | 6.4 | 9.7 | 0.00 | 0.00 | 0.00 | 84 | 1009.2 |
| 20260505090235 | 9 | 266 | 11.3 | 12.9 | 0.00 | 0.00 | 0.00 | 84 | 1009.2 |
| 20260505085732 | 9 | 299 | 6.4 | 8.0 | 0.00 | 0.00 | 0.00 | 83 | 1009.1 |
| 20260505085230 | 10 | 283 | 6.4 | 8.0 | 0.00 | 0.00 | 0.00 | 83 | 1009.2 |
| 20260505084727 | 10 | 264 | 4.8 | 4.8 | 0.00 | 0.00 | 0.00 | 82 | 1009.2 |
| 20260505084226 | 10 | 248 | 6.4 | 8.0 | 0.00 | 0.00 | 0.00 | 82 | 1009.2 |
| 20260505083722 | 10 | 258 | 8.0 | 9.7 | 0.00 | 0.00 | 0.00 | 83 | 1009.3 |
| 20260505083219 | 10 | 278 | 8.0 | 9.7 | 0.00 | 0.00 | 0.00 | 82 | 1009.3 |
| 20260505082715 | 10 | 277 | 6.4 | 11.3 | 0.00 | 0.00 | 0.00 | 83 | 1009.3 |
| 20260505082213 | 10 | 278 | 4.8 | 4.8 | 0.00 | 0.00 | 0.00 | 84 | 1009.3 |
| 20260505081708 | 10 | 293 | 3.2 | 3.2 | 0.00 | 0.00 | 0.00 | 83 | 1009.4 |
| 20260505081206 | 10 | 284 | 6.4 | 8.0 | 0.00 | 0.00 | 0.00 | 83 | 1009.2 |
| 20260505080703 | 10 | 266 | 3.2 | 3.2 | 0.00 | 0.00 | 0.00 | 84 | 1009.3 |
| 20260505080158 | 10 | 263 | 6.4 | 8.0 | 0.00 | 0.00 | 0.00 | 83 | 1009.5 |
| 20260505075654 | 10 | 250 | 4.8 | 4.8 | 0.00 | 0.00 | 0.00 | 82 | 1009.2 |
| 20260505075151 | 10 | 266 | 4.8 | 4.8 | 0.00 | 0.00 | 0.00 | 82 | 1009.3 |
| 20260505074648 | 10 | 271 | 6.4 | 8.0 | 0.00 | 0.00 | 0.00 | 81 | 1009.3 |
| 20260505074145 | 10 | 275 | 6.4 | 8.0 | 0.00 | 0.00 | 0.00 | 82 | 1009.2 |
| 20260505073643 | 10 | 261 | 6.4 | 8.0 | 0.00 | 0.00 | 0.00 | 81 | 1009.3 |
| 20260505073141 | 10 | 259 | 6.4 | 8.0 | 0.00 | 0.00 | 0.00 | 81 | 1009.1 |
| 20260505072636 | 10 | 237 | 8.0 | 9.7 | 0.00 | 0.00 | 0.00 | 81 | 1009.4 |
| 20260505072133 | 10 | 269 | 8.0 | 11.3 | 0.00 | 0.00 | 0.00 | 80 | 1009.1 |
| 20260505071629 | 10 | 260 | 8.0 | 11.3 | 0.00 | 0.00 | 0.00 | 81 | 1009.1 |
| 20260505071127 | 10 | 289 | 8.0 | 12.9 | 0.00 | 0.00 | 0.00 | 81 | 1009.0 |
| 20260505070624 | 10 | 269 | 8.0 | 9.7 | 0.00 | 0.00 | 0.00 | 81 | 1009.0 |
| 20260505070120 | 10 | 277 | 11.3 | 14.5 | 0.00 | 0.00 | 0.00 | 81 | 1009.0 |
| 20260505065616 | 10 | 247 | 11.3 | 12.9 | 0.00 | 0.00 | 0.00 | 82 | 1009.1 |
| 20260505065113 | 10 | 234 | 9.7 | 11.3 | 0.00 | 0.00 | 0.00 | 82 | 1009.2 |
| 20260505064610 | 10 | 272 | 6.4 | 8.0 | 0.00 | 0.00 | 0.00 | 82 | 1009.2 |
| 20260505064108 | 10 | 271 | 8.0 | 11.3 | 0.00 | 0.00 | 0.00 | 82 | 1009.1 |
| 20260505063605 | 10 | 262 | 8.0 | 9.7 | 0.00 | 0.00 | 0.00 | 82 | 1009.1 |
| 20260505063101 | 10 | 266 | 8.0 | 9.7 | 0.00 | 0.00 | 0.00 | 82 | 1009.2 |
| 20260505062557 | 10 | 244 | 8.0 | 9.7 | 0.00 | 0.00 | 0.00 | 83 | 1009.1 |
| 20260505062055 | 10 | 274 | 4.8 | 8.0 | 0.00 | 0.00 | 0.00 | 83 | 1009.0 |
| 20260505061552 | 10 | 264 | 8.0 | 12.9 | 0.00 | 0.00 | 0.00 | 83 | 1009.0 |
| 20260505061050 | 10 | 263 | 8.0 | 9.7 | 0.00 | 0.00 | 0.00 | 83 | 1008.9 |
| 20260505060547 | 10 | 278 | 8.0 | 9.7 | 0.00 | 0.00 | 0.00 | 83 | 1009.0 |
| 20260505060044 | 10 | 280 | 8.0 | 9.7 | 0.00 | 0.00 | 0.00 | 83 | 1009.1 |
| 20260505055539 | 10 | 264 | 8.0 | 11.3 | 0.00 | 0.00 | 0.00 | 83 | 1009.0 |
| 20260505055036 | 10 | 272 | 9.7 | 14.5 | 0.00 | 0.00 | 0.00 | 83 | 1009.0 |
| 20260505054533 | 10 | 266 | 9.7 | 12.9 | 0.00 | 0.00 | 0.00 | 82 | 1009.0 |
| 20260505054032 | 10 | 275 | 8.0 | 8.0 | 0.00 | 0.00 | 0.00 | 83 | 1009.1 |
| 20260505053528 | 10 | 284 | 6.4 | 8.0 | 0.00 | 0.00 | 0.00 | 83 | 1008.9 |
| 20260505053025 | 10 | 266 | 8.0 | 9.7 | 0.00 | 0.00 | 0.00 | 83 | 1009.0 |
| 20260505052522 | 10 | 278 | 11.3 | 12.9 | 0.00 | 0.00 | 0.00 | 83 | 1008.9 |
| 20260505052020 | 10 | 277 | 12.9 | 16.1 | 0.00 | 0.00 | 0.00 | 83 | 1008.8 |
| 20260505051516 | 10 | 246 | 8.0 | 9.7 | 0.00 | 0.00 | 0.00 | 83 | 1008.7 |
| 20260505051014 | 10 | 262 | 9.7 | 12.9 | 0.00 | 0.00 | 0.00 | 83 | 1008.8 |
| 20260505050512 | 10 | 279 | 8.0 | 8.0 | 0.00 | 0.00 | 0.00 | 84 | 1008.6 |
| 20260505041440 | 7 | 345 | 1.6 | 1.6 | 0.00 | 0.00 | 0.00 | 95 | 1008.6 |
| 20260505040937 | 7 | 275 | 1.6 | 3.2 | 0.00 | 0.00 | 0.00 | 97 | 1008.7 |
| 20260505040434 | 7 | 319 | 1.6 | 1.6 | 0.00 | 0.00 | 0.00 | 98 | 1008.6 |
| 20260505035931 | 7 | 349 | 1.6 | 1.6 | 0.00 | 0.05 | 0.05 | 98 | 1008.6 |
| 20260505035427 | 7 | 9 | 0.0 | 0.0 | 0.00 | 0.05 | 0.05 | 97 | 1008.7 |
| 20260505034925 | 7 | 7 | 0.0 | 0.0 | 0.00 | 0.05 | 0.05 | 97 | 1008.6 |
| 20260505034421 | 7 | 351 | 1.6 | 1.6 | 0.00 | 0.05 | 0.05 | 96 | 1008.5 |
| 20260505033918 | 7 | 14 | 0.0 | 0.0 | 0.00 | 0.05 | 0.05 | 95 | 1008.7 |
| 20260505033415 | 7 | 14 | 0.0 | 0.0 | 0.00 | 0.05 | 0.05 | 95 | 1008.6 |
| 20260505032913 | 7 | 19 | 0.0 | 0.0 | 0.00 | 0.05 | 0.05 | 94 | 1008.7 |
| 20260505032409 | 7 | 24 | 0.0 | 0.0 | 0.00 | 0.05 | 0.05 | 93 | 1008.6 |
| 20260505031906 | 7 | 340 | 1.6 | 1.6 | 0.00 | 0.05 | 0.05 | 93 | 1008.6 |
| 20260505031403 | 7 | 0 | 0.0 | 0.0 | 0.00 | 0.05 | 0.05 | 94 | 1008.5 |
| 20260505030900 | 7 | 4 | 0.0 | 0.0 | 0.00 | 0.05 | 0.05 | 94 | 1008.6 |
| 20260505030356 | 7 | 16 | 0.0 | 0.0 | 0.00 | 0.05 | 0.05 | 94 | 1008.7 |
| 20260505025851 | 7 | 9 | 0.0 | 0.0 | 0.00 | 0.05 | 0.05 | 94 | 1008.6 |
| 20260505025349 | 7 | 5 | 0.0 | 0.0 | 0.00 | 0.05 | 0.05 | 93 | 1008.7 |
| 20260505024848 | 7 | 52 | 1.6 | 1.6 | 0.00 | 0.05 | 0.05 | 93 | 1008.7 |
| 20260505024345 | 7 | 9 | 0.0 | 0.0 | 0.00 | 0.05 | 0.05 | 94 | 1008.7 |
| 20260505023842 | 8 | 20 | 0.0 | 0.0 | 0.00 | 0.05 | 0.05 | 93 | 1008.6 |
| 20260505023339 | 8 | 20 | 0.0 | 0.0 | 0.00 | 0.05 | 0.05 | 93 | 1008.4 |
| 20260505022836 | 7 | 17 | 0.0 | 0.0 | 0.00 | 0.05 | 0.05 | 93 | 1008.5 |
| 20260505022333 | 8 | 32 | 1.6 | 1.6 | 0.00 | 0.05 | 0.05 | 91 | 1008.4 |
| 20260505021831 | 8 | 21 | 1.6 | 1.6 | 0.00 | 0.05 | 0.05 | 89 | 1008.6 |
| 20260505021327 | 9 | 13 | 0.0 | 0.0 | 0.00 | 0.05 | 0.05 | 88 | 1008.4 |
| 20260505020823 | 9 | 11 | 0.0 | 0.0 | 0.00 | 0.05 | 0.05 | 88 | 1008.6 |
| 20260505020318 | 9 | 345 | 1.6 | 1.6 | 0.00 | 0.05 | 0.05 | 88 | 1008.6 |
| 20260505015815 | 9 | 20 | 0.0 | 0.0 | 0.00 | 0.05 | 0.05 | 87 | 1008.4 |
| 20260505015313 | 9 | 17 | 0.0 | 0.0 | 0.00 | 0.05 | 0.05 | 87 | 1008.6 |
| 20260505014810 | 9 | 29 | 0.0 | 1.6 | 0.00 | 0.05 | 0.05 | 87 | 1008.5 |
| 20260505014307 | 9 | 39 | 1.6 | 1.6 | 0.00 | 0.05 | 0.05 | 86 | 1008.5 |
| 20260505013803 | 9 | 39 | 3.2 | 3.2 | 0.00 | 0.05 | 0.05 | 86 | 1008.5 |
| 20260505013301 | 9 | 37 | 1.6 | 1.6 | 0.00 | 0.05 | 0.05 | 86 | 1008.3 |
| 20260505012759 | 9 | 35 | 1.6 | 1.6 | 0.00 | 0.05 | 0.05 | 86 | 1008.1 |
| 20260505012256 | 10 | 25 | 0.0 | 1.6 | 0.00 | 0.05 | 0.05 | 86 | 1008.5 |
| 20260505011752 | 10 | 23 | 0.0 | 0.0 | 0.00 | 0.05 | 0.05 | 85 | 1008.3 |
| 20260505011249 | 10 | 38 | 1.6 | 1.6 | 0.00 | 0.05 | 0.05 | 82 | 1008.2 |
| 20260505010744 | 10 | 13 | 0.0 | 0.0 | 0.00 | 0.05 | 0.05 | 81 | 1008.2 |
| 20260505010241 | 10 | 20 | 0.0 | 0.0 | 0.00 | 0.05 | 0.05 | 80 | 1008.2 |
| 20260505005737 | 11 | 19 | 1.6 | 1.6 | 0.00 | 0.05 | 0.05 | 78 | 1008.2 |
| 20260505005234 | 11 | 356 | 0.0 | 1.6 | 0.00 | 0.05 | 0.05 | 77 | 1008.2 |
| 20260505004732 | 11 | 359 | 0.0 | 1.6 | 0.00 | 0.05 | 0.05 | 77 | 1008.0 |
| 20260505004228 | 11 | 16 | 0.0 | 0.0 | 0.00 | 0.05 | 0.05 | 75 | 1007.8 |
| 20260505003725 | 11 | 20 | 1.6 | 1.6 | 0.00 | 0.05 | 0.05 | 76 | 1007.6 |
| 20260505003223 | 12 | 28 | 0.0 | 1.6 | 0.00 | 0.05 | 0.05 | 75 | 1007.5 |
| 20260505002719 | 12 | 32 | 0.0 | 1.6 | 0.00 | 0.05 | 0.05 | 74 | 1007.3 |
| 20260505002217 | 12 | 42 | 3.2 | 3.2 | 0.00 | 0.05 | 0.05 | 75 | 1007.2 |
| 20260505001714 | 11 | 25 | 3.2 | 3.2 | 0.00 | 0.05 | 0.05 | 77 | 1007.2 |
| 20260505001211 | 12 | 38 | 1.6 | 1.6 | 0.00 | 0.05 | 0.05 | 74 | 1007.2 |
| 20260505000708 | 12 | 198 | 0.0 | 0.0 | 0.00 | 0.05 | 0.05 | 70 | 1007.2 |
| 20260505000206 | 13 | 199 | 0.0 | 0.0 | 0.00 | 0.05 | 0.05 | 67 | 1007.3 |
| 20260504235702 | 14 | 208 | 3.2 | 3.2 | 0.00 | 0.05 | 0.05 | 64 | 1007.2 |
| 20260504235158 | 14 | 345 | 0.0 | 0.0 | 0.00 | 0.05 | 0.05 | 65 | 1007.2 |
| 20260504234656 | 14 | 334 | 1.6 | 1.6 | 0.00 | 0.05 | 0.05 | 64 | 1007.0 |
| 20260504234153 | 15 | 312 | 1.6 | 3.2 | 0.00 | 0.05 | 0.05 | 63 | 1006.8 |
| 20260504233649 | 15 | 327 | 1.6 | 1.6 | 0.00 | 0.05 | 0.05 | 60 | 1006.9 |
| 20260504233145 | 15 | 333 | 3.2 | 3.2 | 0.00 | 0.05 | 0.05 | 60 | 1006.4 |
| 20260504232643 | 15 | 10 | 1.6 | 1.6 | 0.00 | 0.05 | 0.05 | 60 | 1006.5 |
| 20260504232139 | 15 | 347 | 3.2 | 3.2 | 0.00 | 0.05 | 0.05 | 59 | 1006.5 |
| 20260504231636 | 16 | 330 | 3.2 | 3.2 | 0.00 | 0.05 | 0.05 | 59 | 1006.5 |
| 20260504231133 | 15 | 335 | 8.0 | 9.7 | 0.00 | 0.05 | 0.05 | 58 | 1006.7 |
| 20260504230629 | 16 | 342 | 1.6 | 1.6 | 0.00 | 0.05 | 0.05 | 59 | 1006.7 |
| 20260504230128 | 16 | 343 | 1.6 | 1.6 | 0.00 | 0.05 | 0.05 | 58 | 1006.5 |
| 20260504225626 | 16 | 325 | 1.6 | 3.2 | 0.00 | 0.05 | 0.05 | 56 | 1006.6 |
| 20260504225121 | 16 | 277 | 3.2 | 3.2 | 0.00 | 0.05 | 0.05 | 56 | 1006.5 |
| 20260504224618 | 16 | 352 | 1.6 | 1.6 | 0.00 | 0.05 | 0.05 | 57 | 1006.5 |
| 20260504224115 | 16 | 279 | 8.0 | 9.7 | 0.00 | 0.05 | 0.05 | 57 | 1006.5 |
| 20260504223612 | 16 | 301 | 6.4 | 8.0 | 0.00 | 0.05 | 0.05 | 55 | 1006.4 |
| 20260504223108 | 16 | 290 | 4.8 | 4.8 | 0.00 | 0.05 | 0.05 | 56 | 1006.5 |
| 20260504222605 | 17 | 287 | 4.8 | 8.0 | 0.00 | 0.05 | 0.05 | 56 | 1006.6 |
| 20260504222102 | 17 | 284 | 8.0 | 9.7 | 0.00 | 0.05 | 0.05 | 56 | 1006.4 |
| 20260504221559 | 16 | 309 | 4.8 | 8.0 | 0.00 | 0.05 | 0.05 | 56 | 1006.3 |
| 20260504221056 | 17 | 289 | 4.8 | 8.0 | 0.00 | 0.05 | 0.05 | 56 | 1006.1 |
| 20260504220553 | 16 | 313 | 11.3 | 14.5 | 0.00 | 0.05 | 0.05 | 55 | 1006.3 |
| 20260504220050 | 17 | 282 | 11.3 | 14.5 | 0.00 | 0.05 | 0.05 | 56 | 1006.4 |
| 20260504215546 | 16 | 251 | 11.3 | 14.5 | 0.00 | 0.05 | 0.05 | 55 | 1006.2 |
| 20260504215044 | 16 | 270 | 12.9 | 16.1 | 0.00 | 0.05 | 0.05 | 57 | 1006.4 |
| 20260504214539 | 16 | 266 | 12.9 | 16.1 | 0.00 | 0.05 | 0.05 | 57 | 1006.3 |
| 20260504214036 | 16 | 261 | 11.3 | 14.5 | 0.00 | 0.05 | 0.05 | 58 | 1006.2 |
| 20260504213532 | 16 | 281 | 12.9 | 17.7 | 0.00 | 0.05 | 0.05 | 58 | 1006.1 |
| 20260504213030 | 16 | 282 | 4.8 | 8.0 | 0.00 | 0.05 | 0.05 | 59 | 1006.5 |
| 20260504212526 | 16 | 277 | 9.7 | 12.9 | 0.00 | 0.05 | 0.05 | 59 | 1006.2 |
| 20260504212023 | 16 | 284 | 11.3 | 12.9 | 0.00 | 0.05 | 0.05 | 59 | 1006.3 |
| 20260504211520 | 16 | 269 | 12.9 | 14.5 | 0.00 | 0.05 | 0.05 | 59 | 1006.2 |
| 20260504211017 | 16 | 303 | 11.3 | 12.9 | 0.00 | 0.05 | 0.05 | 60 | 1006.3 |
| 20260504210514 | 16 | 263 | 17.7 | 24.1 | 0.00 | 0.05 | 0.05 | 60 | 1006.3 |
| 20260504210011 | 16 | 286 | 9.7 | 11.3 | 0.00 | 0.05 | 0.05 | 60 | 1006.2 |
| 20260504205509 | 16 | 325 | 11.3 | 14.5 | 0.00 | 0.05 | 0.05 | 59 | 1005.9 |
| 20260504205006 | 16 | 308 | 4.8 | 4.8 | 0.00 | 0.05 | 0.05 | 60 | 1006.2 |
| 20260504204504 | 16 | 349 | 8.0 | 12.9 | 0.00 | 0.05 | 0.05 | 62 | 1006.1 |
| 20260504204003 | 16 | 261 | 8.0 | 9.7 | 0.00 | 0.05 | 0.05 | 61 | 1006.4 |
| 20260504203500 | 16 | 267 | 17.7 | 24.1 | 0.00 | 0.05 | 0.05 | 62 | 1006.0 |
| 20260504202956 | 16 | 274 | 12.9 | 20.9 | 0.00 | 0.05 | 0.05 | 62 | 1005.9 |
| 20260504202453 | 16 | 303 | 12.9 | 17.7 | 0.00 | 0.05 | 0.05 | 63 | 1005.8 |
| 20260504201950 | 16 | 294 | 11.3 | 12.9 | 0.00 | 0.05 | 0.05 | 62 | 1005.8 |
| 20260504201447 | 16 | 299 | 14.5 | 16.1 | 0.00 | 0.05 | 0.05 | 62 | 1006.1 |
| 20260504200945 | 16 | 259 | 17.7 | 20.9 | 0.00 | 0.05 | 0.05 | 61 | 1006.1 |
| 20260504200441 | 16 | 270 | 14.5 | 24.1 | 0.00 | 0.05 | 0.05 | 62 | 1006.0 |
| 20260504195938 | 16 | 329 | 14.5 | 20.9 | 0.00 | 0.05 | 0.05 | 61 | 1005.9 |
| 20260504195434 | 16 | 281 | 8.0 | 14.5 | 0.00 | 0.05 | 0.05 | 62 | 1005.8 |
| 20260504194930 | 16 | 342 | 19.3 | 27.4 | 0.00 | 0.05 | 0.05 | 62 | 1005.9 |
| 20260504194426 | 16 | 296 | 6.4 | 8.0 | 0.00 | 0.05 | 0.05 | 65 | 1006.0 |
| 20260504193923 | 15 | 287 | 9.7 | 12.9 | 0.00 | 0.05 | 0.05 | 67 | 1006.1 |
| 20260504193420 | 15 | 296 | 11.3 | 16.1 | 0.00 | 0.05 | 0.05 | 67 | 1006.3 |
| 20260504192919 | 15 | 284 | 12.9 | 17.7 | 0.00 | 0.05 | 0.05 | 68 | 1006.2 |
| 20260504192415 | 15 | 272 | 12.9 | 16.1 | 0.00 | 0.05 | 0.05 | 69 | 1006.2 |
| 20260504191914 | 15 | 278 | 14.5 | 20.9 | 0.00 | 0.05 | 0.05 | 69 | 1006.2 |
| 20260504191412 | 14 | 231 | 11.3 | 14.5 | 0.00 | 0.05 | 0.05 | 78 | 1006.3 |
| 20260504190907 | 14 | 232 | 9.7 | 12.9 | 0.00 | 0.05 | 0.05 | 82 | 1006.3 |
| 20260504190403 | 14 | 216 | 8.0 | 9.7 | 0.00 | 0.05 | 0.05 | 78 | 1006.3 |
| 20260504185900 | 13 | 229 | 6.4 | 9.7 | 0.00 | 0.05 | 0.05 | 81 | 1006.5 |
| 20260504185357 | 13 | 231 | 6.4 | 8.0 | 0.00 | 0.05 | 0.05 | 81 | 1006.4 |
| 20260504184853 | 12 | 280 | 11.3 | 12.9 | 0.00 | 0.05 | 0.05 | 84 | 1006.4 |
| 20260504184348 | 12 | 254 | 6.4 | 8.0 | 0.00 | 0.05 | 0.05 | 89 | 1006.7 |